TimeEDT,TemperatureF,Dew PointF,Humidity,Sea Level PressureIn,VisibilityMPH,Wind Direction,Wind SpeedMPH,Gust SpeedMPH,PrecipitationIn,Events,Conditions,WindDirDegrees,DateUTC
12:51 AM,41.0,39.0,93,30.14,10.0,NNE,5.8,-,N/A,,Overcast,20,2013-04-24 04:51:00
1:51 AM,42.1,39.0,89,30.09,10.0,NNE,3.5,-,N/A,,Overcast,20,2013-04-24 05:51:00
2:51 AM,42.1,39.0,89,30.06,10.0,North,5.8,-,N/A,,Overcast,350,2013-04-24 06:51:00
3:06 AM,42.8,39.2,87,30.05,10.0,North,5.8,-,N/A,,Overcast,360,2013-04-24 07:06:00
3:51 AM,42.1,39.0,89,30.04,10.0,North,8.1,-,N/A,,Overcast,350,2013-04-24 07:51:00
4:51 AM,42.1,39.9,92,30.02,10.0,NW,4.6,-,N/A,,Overcast,320,2013-04-24 08:51:00
5:51 AM,43.0,39.9,89,30.03,10.0,NW,4.6,-,N/A,,Overcast,320,2013-04-24 09:51:00
6:36 AM,42.8,39.2,87,30.01,10.0,NNW,6.9,-,N/A,,Overcast,340,2013-04-24 10:36:00
6:51 AM,44.1,41.0,89,30.01,10.0,NNW,5.8,-,N/A,,Overcast,340,2013-04-24 10:51:00
7:51 AM,46.0,39.9,79,30.00,10.0,NW,6.9,-,N/A,,Mostly Cloudy,320,2013-04-24 11:51:00
7:59 AM,46.4,39.2,76,29.99,10.0,NW,8.1,-,N/A,,Mostly Cloudy,310,2013-04-24 11:59:00
8:51 AM,48.0,39.0,71,29.99,10.0,NW,11.5,-,N/A,,Clear,310,2013-04-24 12:51:00
9:51 AM,51.1,39.9,66,29.97,10.0,NW,11.5,-,N/A,,Clear,310,2013-04-24 13:51:00
10:51 AM,57.9,42.1,56,29.93,10.0,Variable,6.9,-,N/A,,Clear,0,2013-04-24 14:51:00
11:51 AM,62.1,44.1,52,29.90,10.0,WNW,5.8,-,N/A,,Clear,300,2013-04-24 15:51:00
12:51 PM,66.0,46.9,50,29.86,10.0,Calm,Calm,-,N/A,,Clear,0,2013-04-24 16:51:00
1:51 PM,70.0,46.9,44,29.82,10.0,Variable,6.9,-,N/A,,Clear,0,2013-04-24 17:51:00
2:51 PM,72.0,44.1,37,29.78,10.0,Variable,3.5,-,N/A,,Clear,0,2013-04-24 18:51:00
3:51 PM,75.0,43.0,32,29.77,10.0,SSW,8.1,-,N/A,,Clear,200,2013-04-24 19:51:00
4:51 PM,75.9,35.1,23,29.76,10.0,SSW,11.5,-,N/A,,Clear,210,2013-04-24 20:51:00
5:51 PM,75.0,33.1,22,29.75,10.0,South,12.7,-,N/A,,Clear,180,2013-04-24 21:51:00
6:51 PM,72.0,37.9,29,29.75,10.0,South,8.1,-,N/A,,Clear,180,2013-04-24 22:51:00
7:51 PM,66.0,39.0,37,29.75,10.0,SSE,5.8,-,N/A,,Clear,160,2013-04-24 23:51:00
8:51 PM,64.9,39.0,39,29.76,10.0,SSE,5.8,-,N/A,,Clear,160,2013-04-25 00:51:00
9:51 PM,62.1,42.1,48,29.78,10.0,South,6.9,-,N/A,,Clear,180,2013-04-25 01:51:00
10:51 PM,61.0,44.1,54,29.77,10.0,SSE,10.4,-,N/A,,Clear,160,2013-04-25 02:51:00
11:51 PM,57.9,45.0,62,29.78,10.0,SSE,9.2,-,N/A,,Clear,160,2013-04-25 03:51:00